When you browse on this site, cookies collect data to enhance your experience and personalize the content and advertising you see.
Visit our Privacy Policy to learn more. By continuing to use the site, you agree to this use of cookies and data.
  • In Hungary
  • List of Countries
  • For 7 days
  • Water Temperature
  • Satellite Maps
  • Weather Map
  • News
  • Weather Widgets
  • user-avatar
    Login

    Hourly Weather Gorodok

    Today, 18 July, Thursday

    Time Temperature Precipitation Wind Pressure Humidity
    00:00 +12°C° 0 mm 2 mps 735 mmHg 92%
    01:00 +12°C° 0 mm 2 mps 735 mmHg 92%
    02:00 +10°C° 0 mm 2 mps 735 mmHg 93%
    03:00 +10°C° 0 mm 2 mps 735 mmHg 93%
    04:00 +10°C° 0 mm 2 mps 735 mmHg 94%
    05:00 +10°C° 0 mm 2 mps 735 mmHg 94%
    06:00 +12°C° 0 mm 2 mps 735 mmHg 90%
    07:00 +13°C° 0 mm 3 mps 735 mmHg 85%
    08:00 +14°C° 0 mm 3 mps 735 mmHg 81%
    09:00 +17°C° 0 mm 3 mps 736 mmHg 75%
    10:00 +18°C° 0 mm 3 mps 736 mmHg 68%
    11:00 +20°C° 0 mm 3 mps 736 mmHg 62%
    12:00 +20°C° 0 mm 3 mps 736 mmHg 60%
    13:00 +21°C° 0 mm 3 mps 736 mmHg 59%
    14:00 +21°C° 0 mm 3 mps 736 mmHg 58%
    15:00 +21°C° 0 mm 3 mps 736 mmHg 58%
    16:00 +21°C° 0 mm 3 mps 736 mmHg 58%
    17:00 +21°C° 0 mm 2 mps 736 mmHg 59%
    18:00 +20°C° 0 mm 2 mps 736 mmHg 64%
    19:00 +18°C° 0 mm 2 mps 736 mmHg 70%
    20:00 +18°C° 0 mm 1 mps 736 mmHg 75%
    21:00 +16°C° 0 mm 1 mps 736 mmHg 77%
    22:00 +14°C° 0 mm 0 mps 736 mmHg 79%
    23:00 +13°C° 0 mm 0 mps 737 mmHg 80%

    Tomorrow, 19 July, Friday

    Time Temperature Precipitation Wind Pressure Humidity
    00:00 +12°C° 0 mm 0 mps 737 mmHg 82%
    01:00 +12°C° 0 mm 0 mps 737 mmHg 83%
    02:00 +13°C° 0 mm 1 mps 737 mmHg 85%
    03:00 +13°C° 0 mm 1 mps 737 mmHg 85%
    04:00 +13°C° 0 mm 1 mps 737 mmHg 86%
    05:00 +12°C° 0 mm 1 mps 737 mmHg 86%
    06:00 +14°C° 0 mm 1 mps 737 mmHg 82%
    07:00 +16°C° 0 mm 1 mps 738 mmHg 77%
    08:00 +19°C° 0 mm 1 mps 738 mmHg 72%
    09:00 +21°C° 0 mm 1 mps 738 mmHg 67%
    10:00 +22°C° 0 mm 1 mps 738 mmHg 62%
    11:00 +24°C° 0 mm 1 mps 738 mmHg 57%
    12:00 +24°C° 0 mm 1 mps 738 mmHg 55%
    13:00 +24°C° 0 mm 1 mps 738 mmHg 52%
    14:00 +25°C° 0 mm 2 mps 738 mmHg 50%
    15:00 +25°C° 0 mm 1 mps 738 mmHg 51%
    16:00 +25°C° 0 mm 1 mps 738 mmHg 53%
    17:00 +25°C° 0 mm 1 mps 738 mmHg 55%
    18:00 +23°C° 0 mm 2 mps 738 mmHg 61%
    19:00 +20°C° 0 mm 2 mps 738 mmHg 67%
    20:00 +19°C° 0 mm 2 mps 738 mmHg 73%
    21:00 +18°C° 0 mm 2 mps 738 mmHg 75%
    22:00 +17°C° 0 mm 2 mps 738 mmHg 77%
    23:00 +16°C° 0 mm 2 mps 739 mmHg 78%

    Day after tomorrow, 20 July, Saturday

    Time Temperature Precipitation Wind Pressure Humidity
    00:00 +16°C° 0 mm 2 mps 739 mmHg 80%
    01:00 +16°C° 0 mm 2 mps 739 mmHg 82%
    02:00 +15°C° 0 mm 2 mps 739 mmHg 84%
    03:00 +15°C° 0 mm 2 mps 739 mmHg 86%
    04:00 +15°C° 0 mm 1 mps 739 mmHg 88%
    05:00 +15°C° 0 mm 1 mps 739 mmHg 89%
    06:00 +16°C° 0.1 mm 1 mps 739 mmHg 88%
    07:00 +17°C° 0.1 mm 2 mps 739 mmHg 86%
    08:00 +18°C° 0.1 mm 2 mps 739 mmHg 85%
    09:00 +20°C° 0.2 mm 2 mps 740 mmHg 81%
    10:00 +21°C° 0.2 mm 2 mps 740 mmHg 78%
    11:00 +23°C° 0.2 mm 2 mps 740 mmHg 74%
    12:00 +24°C° 0.6 mm 2 mps 740 mmHg 68%
    13:00 +25°C° 0.6 mm 1 mps 740 mmHg 63%
    14:00 +26°C° 0.6 mm 1 mps 740 mmHg 57%
    15:00 +26°C° 0.4 mm 1 mps 740 mmHg 59%
    16:00 +26°C° 0.4 mm 1 mps 740 mmHg 61%
    17:00 +26°C° 0.4 mm 1 mps 740 mmHg 63%
    18:00 +25°C° 0.2 mm 1 mps 740 mmHg 69%
    19:00 +23°C° 0.2 mm 1 mps 740 mmHg 76%
    20:00 +20°C° 0.2 mm 2 mps 740 mmHg 82%
    21:00 +20°C° 0 mm 2 mps 740 mmHg 84%
    22:00 +19°C° 0 mm 2 mps 740 mmHg 86%
    23:00 +18°C° 0 mm 2 mps 740 mmHg 88%

    21 July, Sunday

    Time Temperature Precipitation Wind Pressure Humidity
    00:00 +18°C° 0 mm 2 mps 740 mmHg 89%
    01:00 +17°C° 0 mm 2 mps 740 mmHg 89%
    02:00 +17°C° 0 mm 2 mps 740 mmHg 89%
    03:00 +17°C° 0 mm 2 mps 740 mmHg 90%
    04:00 +18°C° 0 mm 1 mps 740 mmHg 90%
    05:00 +16°C° 0 mm 1 mps 740 mmHg 90%
    06:00 +18°C° 0 mm 2 mps 740 mmHg 87%
    07:00 +19°C° 0 mm 2 mps 740 mmHg 83%
    08:00 +21°C° 0 mm 2 mps 740 mmHg 79%
    09:00 +24°C° 0 mm 1 mps 740 mmHg 74%
    10:00 +25°C° 0 mm 1 mps 740 mmHg 69%
    11:00 +27°C° 0 mm 1 mps 740 mmHg 63%
    12:00 +28°C° 0.1 mm 1 mps 740 mmHg 60%
    13:00 +28°C° 0.1 mm 1 mps 740 mmHg 57%
    14:00 +29°C° 0.1 mm 1 mps 740 mmHg 54%
    15:00 +29°C° 0.9 mm 1 mps 740 mmHg 58%
    16:00 +29°C° 0.9 mm 1 mps 740 mmHg 62%
    17:00 +28°C° 0.9 mm 1 mps 739 mmHg 65%
    18:00 +27°C° 0.3 mm 1 mps 739 mmHg 70%
    19:00 +25°C° 0.3 mm 1 mps 739 mmHg 74%
    20:00 +24°C° 0.3 mm 1 mps 739 mmHg 78%
    21:00 +23°C° 0.3 mm 2 mps 739 mmHg 82%
    22:00 +21°C° 0.3 mm 2 mps 739 mmHg 85%
    23:00 +20°C° 0.3 mm 2 mps 740 mmHg 89%

    22 July, Monday

    Time Temperature Precipitation Wind Pressure Humidity
    00:00 +19°C° 0.5 mm 2 mps 739 mmHg 91%
    01:00 +19°C° 0.5 mm 1 mps 739 mmHg 92%
    02:00 +19°C° 0.5 mm 1 mps 739 mmHg 94%
    03:00 +18°C° 0 mm 1 mps 739 mmHg 94%
    04:00 +17°C° 0 mm 2 mps 739 mmHg 95%
    05:00 +17°C° 0 mm 3 mps 739 mmHg 95%
    06:00 +18°C° 0 mm 3 mps 740 mmHg 93%
    07:00 +19°C° 0 mm 4 mps 740 mmHg 91%
    08:00 +20°C° 0 mm 4 mps 740 mmHg 89%
    09:00 +21°C° 0.3 mm 5 mps 740 mmHg 85%
    10:00 +22°C° 0.3 mm 5 mps 740 mmHg 81%
    11:00 +23°C° 0.3 mm 6 mps 741 mmHg 77%
    12:00 +24°C° 0.7 mm 6 mps 740 mmHg 76%
    13:00 +24°C° 0.7 mm 6 mps 740 mmHg 76%
    14:00 +24°C° 0.7 mm 6 mps 740 mmHg 76%
    15:00 +25°C° 0.3 mm 5 mps 740 mmHg 74%
    16:00 +25°C° 0.3 mm 5 mps 740 mmHg 72%
    17:00 +25°C° 0.3 mm 5 mps 740 mmHg 70%
    18:00 +23°C° 0.1 mm 4 mps 740 mmHg 74%
    19:00 +21°C° 0.1 mm 3 mps 740 mmHg 79%
    20:00 +20°C° 0.1 mm 2 mps 740 mmHg 83%
    21:00 +19°C° 0 mm 2 mps 740 mmHg 85%
    22:00 +19°C° 0 mm 2 mps 740 mmHg 86%
    23:00 +18°C° 0 mm 2 mps 740 mmHg 88%

    23 July, Tuesday

    Time Temperature Precipitation Wind Pressure Humidity
    00:00 +17°C° 0 mm 2 mps 740 mmHg 90%
    01:00 +17°C° 0 mm 3 mps 740 mmHg 92%
    02:00 +16°C° 0 mm 3 mps 740 mmHg 94%
    03:00 +16°C° 0 mm 3 mps 740 mmHg 95%
    04:00 +16°C° 0 mm 3 mps 740 mmHg 96%
    05:00 +14°C° 0 mm 3 mps 739 mmHg 97%
    06:00 +16°C° 0.1 mm 3 mps 739 mmHg 96%
    07:00 +17°C° 0.1 mm 3 mps 740 mmHg 94%
    08:00 +18°C° 0.1 mm 4 mps 740 mmHg 92%
    09:00 +18°C° 0 mm 4 mps 740 mmHg 90%
    10:00 +18°C° 0 mm 4 mps 740 mmHg 88%
    11:00 +19°C° 0 mm 4 mps 740 mmHg 85%
    12:00 +19°C° 0 mm 4 mps 740 mmHg 83%
    13:00 +20°C° 0 mm 3 mps 740 mmHg 81%
    14:00 +20°C° 0 mm 3 mps 739 mmHg 80%
    15:00 +21°C° 0 mm 3 mps 739 mmHg 78%
    16:00 +21°C° 0 mm 3 mps 739 mmHg 76%
    17:00 +21°C° 0 mm 3 mps 739 mmHg 74%
    18:00 +20°C° 0 mm 2 mps 739 mmHg 78%
    19:00 +19°C° 0 mm 2 mps 739 mmHg 83%
    20:00 +18°C° 0 mm 2 mps 739 mmHg 87%
    21:00 +18°C° 0 mm 1 mps 739 mmHg 89%
    22:00 +16°C° 0 mm 1 mps 739 mmHg 91%
    23:00 +15°C° 0 mm 1 mps 739 mmHg 93%
    Show more